[Iaude] MPEC A224: 2016 WU3 [a=1.45,e=0.12,i=16.8,H=20.5]

mpec at mpcdb1.cfa.harvard.edu mpec at mpcdb1.cfa.harvard.edu
Sun Jan 13 22:19:16 EST 2019


M.P.E.C. 2019-A224                               Issued 2019 Jan. 14, 03:16 UT
 
     The Minor Planet Electronic Circulars contain information on unusual
         minor planets and routine data on comets.  They are published
    on behalf of Division F of the International Astronomical Union by the
          Minor Planet Center, Smithsonian Astrophysical Observatory,
                          Cambridge, MA 02138, U.S.A.

             Prepared using the Tamkin Foundation Computer Network

                              MPC at CFA.HARVARD.EDU
            URL https://www.minorplanetcenter.net/    ISSN 1523-6714


                                   2016 WU3
 
                           Revision to MPEC 2016-W77
 
Additional Observations:
     K16W03U  C2014 06 20.44985420 32 59.470+01 11 14.73         21.8 GVEA224F51
     K16W03U  C2014 06 20.46190220 32 58.898+01 11 31.42         21.8 GVEA224F51
     K16W03U  C2014 07 02.44113220 20 57.953+05 27 51.31         21.9 GVEA224F51
     K16W03U  C2014 07 02.45326120 20 56.963+05 28 05.72         21.6 GVEA224F51
     K16W03U  C2014 07 02.46535920 20 55.979+05 28 20.59         21.5 GVEA224F51
     K16W03U  C2014 07 02.47751020 20 54.972+05 28 35.13         21.0 GVEA224F51
     K16W03U  C2014 07 04.44701920 18 18.526+06 07 32.16         21.5 GVEA224F51
 
Observer details:
F51 Pan-STARRS 1, Haleakala.  Observers J. Bulger, K. Chambers, T. Lowe,
    E. Magnier, A. Schultz, M. Willman.  Measurers S. Chastel, M. Huber,
    Y. Ramanjooloo, R. Wainscoat, R. Weryk.  1.8-m Ritchey-Chretien + CCD.
 
First and last observations above in comparison with prediction:
Residuals in seconds of arc, reference and Delta-T
140620 F51 26.1- 11.2-    140704 F51 30.6- 12.3-    MPO409572   -0.0068 day
 
Orbital elements:
2016 WU3                                                 Earth MOID = 0.2968 AU
Epoch 2019 Apr. 27.0 TT = JDT 2458600.5                 MPC
M 116.47635              (2000.0)            P               Q
n   0.56183350     Peri.  194.84911     +0.00734892     -0.96019824
a   1.4545577      Node   255.33437     +0.94436650     +0.09848119
e   0.1214717      Incl.   16.77573     +0.32881288     -0.26138245
P   1.75           H   20.5           G   0.15           U   2
Residuals in seconds of arc
140620 F51  0.1+  0.1-    161130 G45  0.4-  0.3+    161208 G96  0.0   0.1+
140620 F51  0.1-  0.5+    161130 G45  0.2+  0.0     161208 G96  0.1-  0.0
140702 F51  0.0   0.0     161130 G45  0.1+  0.1+    161208 G96  0.1-  0.0
140702 F51  0.0   0.2-    161130 G45  0.5+  0.3-    161208 B49  0.1-  0.6-
140702 F51  0.1+  0.0     161130 A13  0.4-  0.9-    161208 B49  0.2-  0.7-
140702 F51  0.1-  0.1-    161130 A13  0.4-  1.0-    161208 B49  0.1-  0.8-
140704 F51  0.1+  0.2-    161130 A13  0.3-  1.1-    161208 160  0.4+  0.2+
161123 G96  0.2-  0.1+    161201 160  0.4-  0.3+    161208 160  0.2+  0.2+
161123 G96  0.2+  0.0     161201 160  0.3+  0.0     161208 160  0.0   0.2+
161123 G96  1.4-  0.5-    161201 160  1.6+  0.7-    161217 300  0.2+  0.4-
161123 I52  0.0   0.2+    161201 G96  0.1-  0.0     161217 300  0.2-  0.8-
161123 I52  0.4-  0.0     161201 G96  0.0   0.2+    161217 300  0.5-  0.3+
161123 I52  0.0   0.1+    161201 G96  1.1+  1.0-    161217 300  0.2-  0.6+
161123 I52  0.0   0.1-    161202 C47  0.0   0.1-    161219 H21  1.1-  4.9-
161123 246  0.2+  0.5-    161202 C47  0.1-  0.0     161219 H21  1.1-  5.1-
161123 246  0.7+  1.4+    161202 C47  0.1+  0.2+    161219 H21  1.2-  4.9-
161123 246  0.4-  1.3+    161202 C47  0.0   0.1+    161220 H21  0.0   0.4+
161123 C43  0.5+  0.3-    161202 C47  0.1+  0.1-    161220 H21  0.1-  0.4+
161123 C43  0.3-  0.5-    161202 C77  0.3+  0.2+    161220 H21  0.1+  0.4+
161123 C43  0.7-  0.1+    161202 C77  0.1+  0.4+    161220 H21  0.2+  0.4+
161124 H01  0.1+  0.0     161202 C77  0.1+  0.2+    161220 H21  0.1-  0.3+
161124 H01  0.0   0.0     161203 246  0.4+  0.2-    161221 246  0.3+  0.6+
161124 H01  0.1+  0.0     161203 246  0.2+  0.2-    161221 246  0.4+  0.1-
161124 H01  0.1+  0.0     161203 246  0.3-  0.1-    161221 246  0.8+  0.2+
161124 I52  0.4-  0.1-    161203 246  0.1-  0.2+    161221 246  1.6+  0.4+
161124 I52  0.0   0.2+    161203 246  0.1-  0.1+    161221 246  0.8+  0.2+
161124 I52  0.2-  0.1-    161203 246  0.5-  0.2+    161221 246  0.5+  0.2-
161124 I52  0.0   0.2-    161203 246  0.3+  0.4-    161221 246  1.3+  1.2+
161124 300  0.1+  0.3+    161203 246  0.2-  0.2-    161224 G96  0.2+  0.6+
161124 300  0.2-  0.2+    161204 G45  0.3-  0.2+    161224 G96  0.5+  0.8+
161124 300  0.4-  0.1-    161204 G45  0.1-  0.2+    161224 G96  0.1+  0.1+
161124 300  0.1-  0.2+    161204 G45  0.1+  0.2+    161224 G96  0.0   0.1-
161124 300  0.2+  0.7+    161204 G45  0.2-  0.6+    161228 F51  0.1-  0.2+
161125 I52  0.3-  0.4-    161204 G45  0.1+  0.5+    161228 F51  0.1-  0.2+
161125 I52  0.2-  0.1-    161204 G45  0.5-  0.4+    161228 F51  0.1-  0.2+
161125 I52  0.1-  0.1-    161204 G45  0.2-  0.3+    161230 246  0.5+  0.5+
161125 I52  0.1+  0.3-    161204 G45  0.1+  0.4+    161230 246  1.7+  1.0+
161125 926  0.0   0.1+    161204 G45  0.2-  0.3+    161230 246  1.7+  1.6+
161125 926  0.2-  0.2+    161204 G45  0.2+  0.5+    161230 246  0.1-  0.3+
161125 926  0.1+  0.4+    161205 246  0.3+  0.2-    161230 246  0.2+  0.5+
161125 I52  0.1-  0.1+    161205 246  0.3+  0.1+    170118 807  0.3-  0.0
161125 I52  0.0   0.2+    161205 246  0.4+  0.5-    170118 807  0.2-  0.2+
161125 I52  0.1-  0.0     161205 246  0.3+  0.3-    170118 807  0.1+  0.1+
161125 I52  0.2+  0.2+    161205 246  0.2-  0.1-    170126 291  0.3-  0.3-
161128 J04  0.0   0.0     161205 246  0.3+  0.1-    170126 291  0.1-  0.1+
161128 J04  0.1+  0.1+    161205 246  0.3+  0.3-    170126 291  0.2-  0.1+
161128 J04  0.1+  0.1+    161206 G45  0.2-  0.3+    170131 G96  0.9-  0.2-
161129 A13  0.0   1.5-    161206 G45  0.2-  0.1+    170131 G96  0.1-  0.5-
161129 A13  0.3-  1.2-    161206 G45  0.3-  0.3+    170131 G96  0.2+  0.3+
161129 246  0.4-  0.1+    161206 G45  0.3-  0.2+    170131 G96  0.4+  0.7+
161129 246  0.1-  0.1+    161206 G45  0.2-  0.3+    170216 807  0.5-  0.1-
161129 246  0.3-  0.2+    161206 G45  0.3-  0.2+    170216 807  0.1-  0.2-
161129 246  0.0   0.9+    161206 G45  0.3-  0.3+    170216 807  0.0   0.5+
161129 246  0.0   0.4+    161206 246  0.6+  0.2+    170219 H21  0.1-  0.1-
161129 246  0.4+  0.5+    161206 246  0.0   0.9+    170219 H21  0.1+  0.3-
161129 246  0.1-  0.1+    161206 246  0.4+  0.7+    170219 H21  0.3-  0.1-
161129 A13  0.4-  1.1-    161206 246  0.1-  0.3+    170220 H21  0.1-  0.1+
161130 203  0.1-  0.2-    161206 246  0.1-  0.6-    170220 H21  0.3-  0.2+
161130 203  0.3+  0.2+    161206 246  0.3+  0.6+    170220 H21  0.0   0.2+
161130 204  0.1-  0.2+    161206 246  0.1+  0.0     170226 H21  0.1+  0.4-
161130 G45  0.0   0.1+    161208 G96  0.1-  0.1+    170226 H21  0.2-  0.3-
161130 204  0.1-  0.0     161208 G96  0.0   0.1+    170226 H21  0.2-  0.4-
161130 G45  0.3-  0.3+    161208 G96  0.0   0.1+    170303 807  0.1-  0.4-
161130 204  0.2+  0.1-    161208 G96  0.0   0.1+    170303 807  0.1+  0.4-
161130 G45  0.1-  0.1-    161208 G96  0.1-  0.0     170303 807  0.1+  0.1-

Ephemeris:
2016 WU3                 a,e,i = 1.45, 0.12, 17                  q = 1.2779
Date    TT    R. A. (2000) Decl.     Delta      r     Elong.  Phase     V
2018 12 15    12 03 51.5 -19 13 57   1.1971  1.3336    74.7    45.4    23.2
...
2018 12 30    12 39 02.4 -25 37 01   1.1339  1.3556    79.3    45.5    23.2
...
2019 01 07    12 57 19.4 -28 48 30   1.0984  1.3682    82.0    45.4    23.1
...
2019 01 13    13 10 44.3 -31 05 09   1.0710  1.3779    84.1    45.2    23.1
2019 01 14    13 12 56.7 -31 27 18   1.0663  1.3796    84.5    45.2    23.1
2019 01 15    13 15 08.6 -31 49 17   1.0616  1.3813    84.9    45.2    23.1
...
2019 01 21    13 28 07.9 -33 57 09   1.0331  1.3913    87.2    44.9    23.0
...
2019 01 29    13 44 48.3 -36 36 49   0.9938  1.4050    90.5    44.5    22.9
...
2019 02 13    14 13 03.8 -40 59 44   0.9159  1.4310    97.4    43.2    22.8

A. U. Tomatic                (C) Copyright 2019 MPC           M.P.E.C. 2019-A224



More information about the Iaude mailing list